When you browse on this site, cookies collect data to enhance your experience and personalize the content and advertising you see.
Visit our Privacy Policy to learn more. By continuing to use the site, you agree to this use of cookies and data.

Hourly Weather Da Nang

Today, 3 August, Monday

Time Temperature Precipitation Wind Pressure Humidity
00:00 +28°C° 2.3 mm 2 mps 751 mmHg 93%
01:00 +27°C° 0 mm 1 mps 750 mmHg 96%
02:00 +27°C° 0.1 mm 1 mps 750 mmHg 96%
03:00 +27°C° 0.1 mm 1 mps 750 mmHg 95%
04:00 +27°C° 0.1 mm 1 mps 749 mmHg 95%
05:00 +28°C° 0.1 mm 2 mps 750 mmHg 94%
06:00 +28°C° 0.1 mm 2 mps 750 mmHg 93%
07:00 +28°C° 0 mm 2 mps 751 mmHg 91%
08:00 +31°C° 0 mm 2 mps 751 mmHg 79%
09:00 +34°C° 0 mm 2 mps 751 mmHg 68%
10:00 +36°C° 0 mm 2 mps 751 mmHg 56%
11:00 +36°C° 0.1 mm 2 mps 751 mmHg 55%
12:00 +37°C° 0.1 mm 2 mps 750 mmHg 54%
13:00 +38°C° 0 mm 2 mps 750 mmHg 48%
14:00 +37°C° 0.1 mm 2 mps 750 mmHg 54%
15:00 +36°C° 0.1 mm 2 mps 749 mmHg 60%
16:00 +35°C° 0.1 mm 2 mps 749 mmHg 66%
17:00 +32°C° 0.7 mm 2 mps 749 mmHg 74%
18:00 +31°C° 0.7 mm 2 mps 750 mmHg 81%
19:00 +29°C° 0 mm 1 mps 750 mmHg 87%
20:00 +29°C° 0 mm 1 mps 751 mmHg 88%
21:00 +28°C° 0 mm 1 mps 751 mmHg 89%
22:00 +28°C° 0 mm 1 mps 752 mmHg 90%
23:00 +28°C° 0.2 mm 2 mps 752 mmHg 91%

Tomorrow, 4 August, Tuesday

Time Temperature Precipitation Wind Pressure Humidity
00:00 +27°C° 0.2 mm 2 mps 751 mmHg 92%
01:00 +27°C° 0.2 mm 2 mps 751 mmHg 93%
02:00 +27°C° 0 mm 2 mps 751 mmHg 91%
03:00 +27°C° 0 mm 2 mps 751 mmHg 90%
04:00 +27°C° 0 mm 2 mps 751 mmHg 89%
05:00 +27°C° 0 mm 2 mps 751 mmHg 86%
06:00 +28°C° 0 mm 2 mps 751 mmHg 84%
07:00 +28°C° 0 mm 2 mps 752 mmHg 81%
08:00 +29°C° 0 mm 2 mps 752 mmHg 79%
09:00 +30°C° 0 mm 2 mps 752 mmHg 76%
10:00 +31°C° 0 mm 2 mps 752 mmHg 74%
11:00 +31°C° 0 mm 1 mps 752 mmHg 74%
12:00 +31°C° 0 mm 1 mps 751 mmHg 74%
13:00 +29°C° 0 mm 0 mps 751 mmHg 75%
14:00 +31°C° 0 mm 1 mps 751 mmHg 75%
15:00 +31°C° 0 mm 1 mps 750 mmHg 75%
16:00 +31°C° 0 mm 2 mps 750 mmHg 75%
17:00 +30°C° 0.1 mm 1 mps 750 mmHg 78%
18:00 +30°C° 0.1 mm 1 mps 750 mmHg 81%
19:00 +29°C° 0.1 mm 1 mps 751 mmHg 83%
20:00 +29°C° 0.1 mm 1 mps 751 mmHg 84%
21:00 +29°C° 0.1 mm 2 mps 752 mmHg 85%
22:00 +29°C° 0.1 mm 2 mps 752 mmHg 87%
23:00 +28°C° 0.1 mm 2 mps 752 mmHg 89%

Day after tomorrow, 5 August, Wednesday

Time Temperature Precipitation Wind Pressure Humidity
00:00 +28°C° 0.1 mm 2 mps 752 mmHg 91%
01:00 +28°C° 0.1 mm 2 mps 752 mmHg 93%
02:00 +28°C° 0 mm 2 mps 751 mmHg 92%
03:00 +28°C° 0 mm 2 mps 751 mmHg 91%
04:00 +27°C° 0 mm 2 mps 751 mmHg 90%
05:00 +28°C° 0.1 mm 2 mps 751 mmHg 88%
06:00 +28°C° 0.1 mm 2 mps 752 mmHg 87%
07:00 +29°C° 0.1 mm 2 mps 752 mmHg 85%
08:00 +30°C° 0 mm 1 mps 752 mmHg 79%
09:00 +32°C° 0 mm 1 mps 753 mmHg 74%
10:00 +31°C° 0 mm 0 mps 753 mmHg 68%
11:00 +34°C° 0.1 mm 1 mps 752 mmHg 64%
12:00 +36°C° 0.1 mm 1 mps 752 mmHg 60%
13:00 +37°C° 0.1 mm 1 mps 752 mmHg 56%
14:00 +36°C° 1.1 mm 2 mps 751 mmHg 68%
15:00 +34°C° 1.1 mm 2 mps 751 mmHg 79%
16:00 +31°C° 1.1 mm 2 mps 750 mmHg 90%
17:00 +30°C° 1 mm 2 mps 751 mmHg 92%
18:00 +30°C° 1 mm 1 mps 751 mmHg 93%
19:00 +29°C° 1 mm 1 mps 752 mmHg 95%
20:00 +28°C° 1.1 mm 1 mps 752 mmHg 96%
21:00 +28°C° 1.1 mm 2 mps 753 mmHg 96%
22:00 +28°C° 1.1 mm 3 mps 754 mmHg 97%
23:00 +27°C° 0.3 mm 2 mps 753 mmHg 96%

6 August, Thursday

Time Temperature Precipitation Wind Pressure Humidity
00:00 +27°C° 0.3 mm 2 mps 753 mmHg 96%
01:00 +27°C° 0.3 mm 2 mps 753 mmHg 96%
02:00 +27°C° 0.2 mm 2 mps 752 mmHg 95%
03:00 +27°C° 0.2 mm 2 mps 752 mmHg 95%
04:00 +27°C° 0.2 mm 2 mps 752 mmHg 95%
05:00 +28°C° 0 mm 1 mps 752 mmHg 94%
06:00 +28°C° 0 mm 1 mps 752 mmHg 92%
07:00 +27°C° 0 mm 0 mps 753 mmHg 90%
08:00 +31°C° 0 mm 1 mps 753 mmHg 80%
09:00 +33°C° 0 mm 1 mps 753 mmHg 70%
10:00 +35°C° 0 mm 1 mps 753 mmHg 60%
11:00 +35°C° 0.5 mm 1 mps 753 mmHg 66%
12:00 +35°C° 0.5 mm 2 mps 752 mmHg 72%
13:00 +35°C° 0.5 mm 2 mps 752 mmHg 78%
14:00 +34°C° 1.2 mm 2 mps 751 mmHg 81%
15:00 +34°C° 1.2 mm 2 mps 751 mmHg 84%
16:00 +32°C° 1.2 mm 2 mps 751 mmHg 87%
17:00 +31°C° 1.1 mm 2 mps 751 mmHg 90%
18:00 +30°C° 1.1 mm 2 mps 752 mmHg 92%
19:00 +28°C° 1.1 mm 3 mps 753 mmHg 95%
20:00 +28°C° 0.5 mm 2 mps 753 mmHg 95%
21:00 +28°C° 0.5 mm 2 mps 754 mmHg 96%
22:00 +28°C° 0.5 mm 2 mps 754 mmHg 96%
23:00 +27°C° 0.3 mm 2 mps 754 mmHg 96%

7 August, Friday

Time Temperature Precipitation Wind Pressure Humidity
00:00 +27°C° 0.3 mm 2 mps 753 mmHg 96%
01:00 +27°C° 0.3 mm 2 mps 753 mmHg 96%
02:00 +27°C° 0 mm 1 mps 753 mmHg 96%
03:00 +27°C° 0 mm 1 mps 753 mmHg 96%
04:00 +27°C° 0 mm 1 mps 752 mmHg 96%
05:00 +27°C° 0 mm 1 mps 753 mmHg 95%
06:00 +28°C° 0 mm 1 mps 753 mmHg 93%
07:00 +28°C° 0 mm 1 mps 753 mmHg 92%
08:00 +30°C° 0.1 mm 1 mps 753 mmHg 82%
09:00 +32°C° 0.1 mm 1 mps 754 mmHg 71%
10:00 +34°C° 0.1 mm 1 mps 754 mmHg 61%
11:00 +34°C° 1 mm 1 mps 753 mmHg 68%
12:00 +34°C° 1 mm 2 mps 753 mmHg 75%
13:00 +32°C° 1 mm 2 mps 752 mmHg 82%
14:00 +32°C° 1.1 mm 2 mps 752 mmHg 84%
15:00 +31°C° 1.1 mm 2 mps 751 mmHg 86%
16:00 +31°C° 1.1 mm 2 mps 751 mmHg 87%
17:00 +30°C° 1.2 mm 1 mps 751 mmHg 89%
18:00 +29°C° 1.2 mm 1 mps 752 mmHg 92%
19:00 +26°C° 1.2 mm 0 mps 752 mmHg 94%
20:00 +27°C° 0.2 mm 1 mps 753 mmHg 94%
21:00 +27°C° 0.2 mm 1 mps 753 mmHg 94%
22:00 +27°C° 0.2 mm 1 mps 754 mmHg 94%
23:00 +27°C° 0.1 mm 1 mps 754 mmHg 94%

8 August, Saturday

Time Temperature Precipitation Wind Pressure Humidity
00:00 +27°C° 0.1 mm 1 mps 753 mmHg 94%
01:00 +27°C° 0.1 mm 2 mps 753 mmHg 94%
02:00 +27°C° 0.1 mm 2 mps 752 mmHg 93%
03:00 +27°C° 0.1 mm 2 mps 752 mmHg 93%
04:00 +26°C° 0.1 mm 2 mps 752 mmHg 93%
05:00 +27°C° 0.3 mm 2 mps 752 mmHg 93%
06:00 +27°C° 0.3 mm 2 mps 752 mmHg 94%
07:00 +27°C° 0.3 mm 2 mps 753 mmHg 94%
08:00 +28°C° 0.3 mm 2 mps 753 mmHg 91%
09:00 +29°C° 0.3 mm 2 mps 753 mmHg 89%
10:00 +30°C° 0.3 mm 2 mps 753 mmHg 87%
11:00 +31°C° 1.3 mm 2 mps 752 mmHg 85%
12:00 +31°C° 1.3 mm 2 mps 752 mmHg 83%
13:00 +32°C° 1.3 mm 2 mps 751 mmHg 81%
14:00 +32°C° 1.4 mm 2 mps 751 mmHg 84%
15:00 +31°C° 1.4 mm 2 mps 751 mmHg 87%
16:00 +31°C° 1.4 mm 2 mps 750 mmHg 90%
17:00 +30°C° 0.5 mm 2 mps 751 mmHg 91%
18:00 +29°C° 0.5 mm 1 mps 751 mmHg 93%
19:00 +28°C° 0.5 mm 1 mps 751 mmHg 94%
20:00 +28°C° 0.3 mm 1 mps 752 mmHg 94%
21:00 +28°C° 0.3 mm 1 mps 752 mmHg 94%
22:00 +27°C° 0.3 mm 1 mps 753 mmHg 94%
23:00 +27°C° 0 mm 1 mps 752 mmHg 93%
Show more